Skip Page Navigation
NASA JPL Caltech
NASA Logo - Jet Propulsion Laboratory + View the NASA Portal
+ Center for Near-Earth Object Studies
JPL Home Earth Solar System Stars & Galaxies Technology
JPL Solar System Dynamics
BODIES ORBITS EPHEMERIDES TOOLS PHYSICAL DATA DISCOVERY FAQ SITE MAP
IMPORTANT: The SSD Announcement email list is now available. Major changes are coming in the near future, including possible hostname and/or URL changes. To be notified of such changes, subscribe to this email list.

Please visit this page for more details.


JPL Small-Body Database Browser
Search: [ help ]  
26210 Lingas (1997 RC3)
Classification: Main-belt Asteroid          SPK-ID: 2026210
Ephemeris | Orbit Diagram | Orbital Elements | Mission Design | Physical Parameters | Discovery Circumstances | Close-Approach Data ]

[ show orbit diagram ]
Orbital Elements at Epoch 2459000.5 (2020-May-31.0) TDB
Reference: JPL 33 (heliocentric ecliptic J2000)
 Element Value Uncertainty (1-sigma)   Units 
e .1696721369414767 2.9207e-08  
a 2.710721186834719 1.1946e-08 au
q 2.250787330411936 7.9234e-08 au
i 11.39225082347123 4.4538e-06 deg
node 177.4172670429893 1.7128e-05 deg
peri 103.4405836319149 2.2629e-05 deg
M 84.72096685304339 1.2948e-05 deg
tp 2458616.868637008561
(2019-May-13.36863701)
5.8837e-05 TDB
period 1630.142995375375
4.46
1.0776e-05
2.95e-08
d
yr
n .2208395220672664 1.4599e-09 deg/d
Q 3.170655043257501 1.3973e-08 au
  Orbit Determination Parameters
   # obs. used (total)      1231  
   data-arc span      8126 days (22.25 yr)  
   first obs. used      1997-09-06  
   last obs. used      2019-12-06  
   planetary ephem.      DE431  
   SB-pert. ephem.      SB431-N16  
   condition code      0  
   norm. resid. RMS      .53251  
   source      ORB  
   producer      Otto Matic  
   solution date      2020-Feb-23 00:40:36  

Additional Information
 Earth MOID = 1.26788 au 
 Jupiter MOID = 2.09716 au 
 T_jup = 3.314 
[ show covariance matrix ]

Ephemeris | Orbit Diagram | Orbital Elements | Mission Design | Physical Parameters | Discovery Circumstances | Close-Approach Data ]

Physical Parameter Table
Parameter Symbol Value Units Sigma Reference Notes
absolute magnitude H 14.3   n/a MPO449153  
diameter diameter 4.121 km 0.182 urn:nasa:pds:neowise_diameters_albedos::2.0[mainbelt] (http://adsabs.harvard.edu/abs/2011ApJ...741...68M)  
geometric albedo albedo 0.261   0.093 urn:nasa:pds:neowise_diameters_albedos::2.0[mainbelt] (http://adsabs.harvard.edu/abs/2011ApJ...741...68M)  

26210 Lingas           Discovered 1997 Sept. 6 at Pises.
The Lingas plateau is located in the Cevennes National Park and is the site of the Pises Observatory.
NOTE: some special characters may not display properly (any characters within {} are an attempt to place the proper accent above a character)
Reference: 20020328/MPCPages.arcLast Updated: 2003-10-02

[ show close-approach data ]
Alternate Designations
 1997 RC3 = 2000 CD50 
Ephemeris | Orbit Diagram | Orbital Elements | Mission Design | Physical Parameters | Discovery Circumstances | Close-Approach Data ]
ABOUT SSD CREDITS/AWARDS PRIVACY/COPYRIGHT GLOSSARY LINKS
FirstGov 2020-Apr-02 23:22 UT
(server date/time)  
NASA Home Page
Site Manager:   Ryan S. Park
Webmaster  Alan B. Chamberlin